Tracking 23722 objects as of 16-Oct-2021
HD Live streaming from Space Station
objects crossing your sky now

CZ-4C DEB

Track CZ-4C DEB now!
10-day predictions


NORAD ID: 38295
Int'l Code: 2010-059E
Perigee: 806.7 km
Apogee: 1,210.9 km
Inclination: 98.7 °
Period: 105.2 minutes
Semi major axis: 7379 km
RCS: 0.0013 m2 (small)
Launch date: November 4, 2010
Source: People's Republic of China (PRC)
Launch site: Taiyaun Space Center, China (TSC)

Note: This is SATELLITE DEBRIS
aabbcc
Your satellite tracking list
Your tracking list is empty




NASA's NSSDC Master Catalog

Two Line Element Set (TLE):
1 38295U 10059E   21284.76668005  .00000195  00000-0  20448-3 0  9993
2 38295  98.6751 255.4106 0273893  52.2689  64.1978 13.69421648434350
Source of the keplerian elements: AFSPC